Flag for Austria Weather past 2 weeks in Bruck an der Mur, Styria, Austria

Now
23 °F

Clear.


Feels Like: 23 °F
Forecast: 16 / 38 °F
Wind: 2 mph from Northeast

Location: Zeltweg

Current Time: Jan 26, 2015 at 11:57:19 PM

Latest Report: Jan 26, 2015 at 9:50 PM


Visibility: 6 mi

Pressure: 30.09 "Hg

Humidity: 80%

Dew point: 18 °F

Location of Bruck an der MurLocation

Historic Weather in Bruck an der Mur — Graph

°F

Bruck an der Mur temperature yesterday

Maximum temperature yesterday: 37 °F (at 11:50 AM)
Minimum temperature yesterday: 32 °F (at 5:50 AM)
Average temperature yesterday: 34 °F

Past Weeks' High & Low Weather Summary

 TemperatureHumidityPressure
High52 °F (Jan 16, 1:50 PM)100% (Jan 12, 7:50 AM)30.27 "Hg (Jan 12, 7:50 AM)
Low12 °F (Jan 14, 6:50 AM)41% (Jan 26, 12:50 PM)29.74 "Hg (Jan 20, 3:20 PM)
Average33 °F81%29.97 "Hg
* Reported Jan 11 9:50 PM — Jan 26 9:50 PM, Bruck an der Mur, Weather by CustomWeather, © 2014

Note: Actual official high and low records may vary slightly from our data, if they occured in-between our weather recording intervals... More about our weather records

Advertising

Bruck an der Mur weather history for previous 24 hours

 ConditionsComfort  
Time TempWeatherWind HumidityBarometerVisibility
9:50 PM
Jan 26
23 °FClear.2 mph80%30.09 "Hg6 mi
4:20 PM36 °FPassing clouds.6 mph48%30.12 "Hg31 mi
3:50 PM36 °FScattered clouds.5 mph52%30.12 "Hg31 mi
3:20 PM37 °FPartly sunny.3 mph41%30.12 "Hg31 mi
2:50 PM37 °FScattered clouds.2 mph45%30.12 "Hg31 mi
2:20 PM39 °FScattered clouds.2 mph42%30.15 "Hg31 mi
1:50 PM39 °FPassing clouds.3 mph42%30.15 "Hg31 mi
1:20 PM37 °FPassing clouds.7 mph41%30.15 "Hg31 mi
12:50 PM37 °FPassing clouds.3 mph41%30.18 "Hg31 mi
12:20 PM37 °FPassing clouds.3 mph45%30.18 "Hg31 mi
11:50 AM36 °FPassing clouds.6 mph48%30.18 "Hg31 mi
11:20 AM34 °FPassing clouds.1 mph60%30.21 "Hg31 mi
10:50 AM32 °FPassing clouds.1 mph64%30.21 "Hg31 mi
10:20 AM30 °FPassing clouds.3 mph69%30.21 "Hg31 mi
9:50 AM28 °FPassing clouds.2 mph74%30.21 "Hg31 mi
9:20 AM27 °FPassing clouds.1 mph80%30.21 "Hg31 mi
8:50 AM25 °FPassing clouds.1 mph80%30.21 "Hg31 mi
8:20 AM23 °FPassing clouds.2 mph80%30.21 "Hg31 mi
7:50 AM23 °FPassing clouds.2 mph80%30.21 "Hg31 mi
7:20 AM23 °FPassing clouds.1 mph80%30.21 "Hg31 mi
6:50 AM23 °FPassing clouds.1 mph80%30.21 "Hg19 mi
5:50 AM23 °FPassing clouds.1 mph80%30.21 "Hg19 mi
4:50 AM23 °FPassing clouds.1 mph80%30.18 "Hg19 mi
Weather by CustomWeather, © 2014

See weather overviewHow to use our weather pages